Weather History for West Bend, WI

Change the Weather History Date:

Sunday, September 29, 2013

  Actual Average Record
Temperature  
Mean Temperature 55 °F -  
Max Temperature 66 °F 66 °F 89 °F (1953)
Min Temperature 44 °F 45 °F 27 °F (1984)
Degree Days  
Heating Degree Days 10    
Growing Degree Days 5 (Base 50)    
Moisture  
Dew Point 44 °F    
Average Humidity 71    
Maximum Humidity 94    
Minimum Humidity 32    
Precipitation  
Precipitation 0.00 in - - ()
Sea Level Pressure  
Sea Level Pressure 30.02 in    
Wind  
Wind Speed 5 mph (NW)    
Max Wind Speed 10 mph    
Max Gust Speed -    
Visibility 10 miles    
Events      
Averages and records for this station are not official NWS values.
T = Trace of Precipitation, MM = Missing Value Source: NWS Daily Summary

Daily Weather History Graph

Daily Weather History Graph

Search for Another Location

Airport:

Trip Planner

Search our weather history database for the weather conditions in past years. The results will help you decide how hot, cold, wet, or windy it might be!

Date:

Astronomy

Sep. 29, 2013 Rise Set
Actual Time 6:47 AM CDT 6:36 PM CDT
Civil Twilight 6:19 AM CDT 7:05 PM CDT
Nautical Twilight 5:46 AM CDT 7:38 PM CDT
Astronomical Twilight 5:12 AM CDT 8:11 PM CDT
Moon 1:21 AM CDT (9/29) 3:39 PM CDT (9/29)
Length of Visible Light 12h 45m
Length of Day
11h 48m
Waning Crescent, 27% of the Moon is Illuminated
Sep 29
Waning Crescent
Oct 4
New
Oct 11
First Quarter
Oct 18
Full
Oct 26
Last Quarter

Hourly Weather History & Observations

Time (CDT) Temp. Windchill Dew Point Humidity Pressure Visibility Wind Dir Wind Speed Gust Speed Precip Events Conditions
12:15 AM 53.6 °F - 50.0 °F 88% 29.95 in 10.0 mi West 4.6 mph - N/A   Overcast
12:35 AM 53.6 °F - 50.0 °F 88% 29.95 in 10.0 mi West 6.9 mph - N/A   Scattered Clouds
12:55 AM 53.6 °F - 50.0 °F 88% 29.96 in 10.0 mi West 8.1 mph - N/A   Clear
1:15 AM 53.6 °F - 50.0 °F 88% 29.97 in 10.0 mi West 5.8 mph - N/A   Clear
1:35 AM 51.8 °F - 50.0 °F 94% 29.97 in 10.0 mi West 9.2 mph - N/A   Clear
1:55 AM 51.8 °F - 50.0 °F 94% 29.97 in 10.0 mi WNW 6.9 mph - N/A   Clear
2:15 AM 51.8 °F - 50.0 °F 94% 29.97 in 10.0 mi West 8.1 mph - N/A   Clear
2:35 AM 51.8 °F - 48.2 °F 88% 29.97 in 10.0 mi WNW 8.1 mph - N/A   Clear
2:55 AM 51.8 °F - 48.2 °F 88% 29.98 in 10.0 mi WNW 6.9 mph - N/A   Clear
3:15 AM 51.8 °F - 48.2 °F 88% 29.98 in 10.0 mi West 8.1 mph - N/A   Clear
3:35 AM 51.8 °F - 48.2 °F 88% 29.99 in 10.0 mi WNW 6.9 mph - N/A   Clear
3:55 AM 51.8 °F - 48.2 °F 88% 29.99 in 10.0 mi West 5.8 mph - N/A   Clear
4:15 AM 51.8 °F - 46.4 °F 82% 29.99 in 10.0 mi West 8.1 mph - N/A   Clear
4:35 AM 50.0 °F - 46.4 °F 87% 29.99 in 10.0 mi WNW 8.1 mph - N/A   Clear
4:55 AM 50.0 °F - 46.4 °F 87% 30.00 in 10.0 mi WNW 9.2 mph - N/A   Clear
5:15 AM 50.0 °F - 46.4 °F 87% 30.00 in 10.0 mi WNW 8.1 mph - N/A   Clear
5:35 AM 50.0 °F - 46.4 °F 87% 30.00 in 10.0 mi WNW 4.6 mph - N/A   Clear
5:55 AM 50.0 °F - 46.4 °F 87% 30.01 in 10.0 mi WNW 3.5 mph - N/A   Clear
6:15 AM 48.2 °F - 46.4 °F 93% 30.02 in 10.0 mi WNW 4.6 mph - N/A   Clear
6:35 AM 48.2 °F - 44.6 °F 87% 30.03 in 10.0 mi WNW 4.6 mph - N/A   Clear
6:55 AM 46.4 °F 45.2 °F 44.6 °F 93% 30.03 in 10.0 mi WNW 3.5 mph - N/A   Clear
7:15 AM 46.4 °F 44.3 °F 44.6 °F 93% 30.04 in 10.0 mi WNW 4.6 mph - N/A   Clear
7:35 AM 48.2 °F - 44.6 °F 87% 30.03 in 10.0 mi NW 4.6 mph - N/A   Clear
7:55 AM 50.0 °F - 46.4 °F 87% 30.04 in 10.0 mi WNW 6.9 mph - N/A   Clear
8:15 AM 50.0 °F - 46.4 °F 87% 30.04 in 10.0 mi WNW 6.9 mph - N/A   Clear
8:35 AM 51.8 °F - 46.4 °F 82% 30.04 in 10.0 mi WNW 5.8 mph - N/A   Clear
8:55 AM 51.8 °F - 46.4 °F 82% 30.05 in 10.0 mi NW 4.6 mph - N/A   Clear
9:15 AM 53.6 °F - 46.4 °F 77% 30.05 in 10.0 mi WNW 5.8 mph - N/A   Clear
9:35 AM 55.4 °F - 46.4 °F 72% 30.06 in 10.0 mi NW 3.5 mph - N/A   Clear
9:55 AM 55.4 °F - 46.4 °F 72% 30.06 in 10.0 mi WNW 4.6 mph - N/A   Clear
10:15 AM 59.0 °F - 46.4 °F 63% 30.07 in 10.0 mi NNW 6.9 mph - N/A   Clear
10:35 AM 59.0 °F - 44.6 °F 59% 30.07 in 10.0 mi NNE 3.5 mph - N/A   Clear
10:55 AM 60.8 °F - 42.8 °F 52% 30.07 in 10.0 mi Calm Calm - N/A   Clear
11:15 AM 62.6 °F - 44.6 °F 52% 30.07 in 10.0 mi NNW 3.5 mph - N/A   Clear
11:35 AM 62.6 °F - 42.8 °F 48% 30.07 in 10.0 mi NNW 4.6 mph - N/A   Clear
11:55 AM 62.6 °F - 41.0 °F 45% 30.06 in 10.0 mi North 4.6 mph - N/A   Clear
12:15 PM 62.6 °F - 41.0 °F 45% 30.06 in 10.0 mi Calm Calm - N/A   Clear
12:35 PM 64.4 °F - 41.0 °F 42% 30.06 in 10.0 mi WNW 4.6 mph - N/A   Clear
12:55 PM 64.4 °F - 41.0 °F 42% 30.05 in 10.0 mi North 3.5 mph - N/A   Clear
1:15 PM 64.4 °F - 37.4 °F 37% 30.05 in 10.0 mi WNW 3.5 mph - N/A   Clear
1:35 PM 64.4 °F - 37.4 °F 37% 30.04 in 10.0 mi Calm Calm - N/A   Clear
1:55 PM 64.4 °F - 37.4 °F 37% 30.03 in 10.0 mi North 4.6 mph - N/A   Clear
2:15 PM 64.4 °F - 37.4 °F 37% 30.03 in 10.0 mi NW 3.5 mph - N/A   Clear
2:35 PM 66.2 °F - 37.4 °F 35% 30.02 in 10.0 mi Calm Calm - N/A   Clear
2:55 PM 66.2 °F - 35.6 °F 32% 30.02 in 10.0 mi Calm Calm - N/A   Clear
3:15 PM 66.2 °F - 35.6 °F 32% 30.01 in 10.0 mi South 3.5 mph - N/A   Clear
3:35 PM 66.2 °F - 35.6 °F 32% 30.01 in 10.0 mi NE 4.6 mph - N/A   Clear
3:55 PM 66.2 °F - 35.6 °F 32% 30.01 in 10.0 mi North 4.6 mph - N/A   Clear
4:15 PM 66.2 °F - 35.6 °F 32% 30.00 in 10.0 mi NW 3.5 mph - N/A   Clear
4:35 PM 66.2 °F - 35.6 °F 32% 30.00 in 10.0 mi Calm Calm - N/A   Clear
4:55 PM 64.4 °F - 44.6 °F 49% 30.00 in 10.0 mi ESE 10.4 mph - N/A   Clear
5:15 PM 62.6 °F - 44.6 °F 52% 30.00 in 10.0 mi SE 6.9 mph - N/A   Clear
5:35 PM 62.6 °F - 44.6 °F 52% 30.00 in 10.0 mi SE 5.8 mph - N/A   Clear
5:55 PM 60.8 °F - 44.6 °F 55% 30.00 in 10.0 mi ESE 5.8 mph - N/A   Clear
6:15 PM 59.0 °F - 44.6 °F 59% 30.00 in 10.0 mi Calm Calm - N/A   Clear
6:35 PM 57.2 °F - 44.6 °F 63% 30.00 in 10.0 mi Calm Calm - N/A   Clear
6:55 PM 55.4 °F - 44.6 °F 67% 30.01 in 4.0 mi Calm Calm - N/A   Haze
7:15 PM 53.6 °F - 46.4 °F 77% 30.01 in 10.0 mi Calm Calm - N/A   Clear
7:35 PM 51.8 °F - 46.4 °F 82% 30.01 in 10.0 mi Calm Calm - N/A   Clear
7:55 PM 51.8 °F - 46.4 °F 82% 30.01 in 10.0 mi Calm Calm - N/A   Clear
8:15 PM 51.8 °F - 46.4 °F 82% 30.02 in 10.0 mi Calm Calm - N/A   Clear
8:35 PM 50.0 °F - 46.4 °F 87% 30.02 in 10.0 mi Calm Calm - N/A   Clear
8:55 PM 50.0 °F - 46.4 °F 87% 30.02 in 10.0 mi Calm Calm - N/A   Clear
9:15 PM 48.2 °F - 44.6 °F 87% 30.02 in 10.0 mi Calm Calm - N/A   Clear
9:35 PM 46.4 °F - 44.6 °F 93% 30.02 in 10.0 mi Calm Calm - N/A   Clear
9:55 PM 46.4 °F - 44.6 °F 93% 30.01 in 10.0 mi Calm Calm - N/A   Clear
10:15 PM 46.4 °F - 42.8 °F 87% 30.01 in 7.0 mi Calm Calm - N/A   Clear
10:35 PM 46.4 °F - 42.8 °F 87% 30.01 in 10.0 mi Calm Calm - N/A   Clear
10:55 PM 46.4 °F - 42.8 °F 87% 30.02 in 4.0 mi Calm Calm - N/A   Clear
11:15 PM 44.6 °F - 42.8 °F 93% 30.01 in 5.0 mi Calm Calm - N/A   Clear
11:35 PM 44.6 °F - 42.8 °F 93% 30.01 in 7.0 mi Calm Calm - N/A   Clear
11:55 PM 44.6 °F - 42.8 °F 93% 30.01 in 7.0 mi Calm Calm - N/A   Clear